[[{"header":{"parameterUnit":"m.s-1","parameterCategory":1,"la1":30.2991,"la2":30.254,"lo1":-89.0895,"lo2":-89.0444,"dy":0.0017,"dx":0.0017,"nx":28,"ny":28,"refTime":"2024-03-23T03:00:00:Z","depth":0,"parameterNumber":2,"parameterNumberName":"U-component_of_WINDS"},"data":[0,0,0,0,0,0,0,0,0,0,0,0,0,0,0,0,0,0,0,0,0,0,0,0,0,0,0,0,0,0,0,0,0,0,0,0,0,0,0,0,0,0,0,0,0,0,0,0,0,0,0,0,0,0,0,0,0,0,1.0613,1.0613,0,1.0619,1.0619,1.0619,1.0607,1.0607,1.0607,1.0606,1.0611,1.0611,1.0612,0,0,0,0,0,0,0,0,0,0,0,0,0,1.0592,1.0592,1.0613,1.0613,1.0613,1.0619,1.0619,1.0619,1.0607,1.0607,1.0606,1.0606,1.0611,1.0611,1.0612,0,0,0,0,0,0,0,0,0,0,0,0,0,1.06,1.0593,1.0613,1.0608,1.0608,1.0619,1.0619,1.0619,1.0607,1.0607,1.0606,1.0606,1.061,1.0611,1.0612,1.0628,0,0,1.0614,1.0614,0,0,0,0,0,0,0,0,1.0599,1.0601,1.0609,1.0609,1.0608,1.0612,1.0613,1.0622,1.0608,1.0608,1.0606,1.0605,1.0612,1.0612,1.0614,1.0628,1.0628,1.0614,1.0615,1.0615,1.0615,0,0,0,0,0,0,0,1.0599,1.06,1.0616,1.0609,1.0609,1.0606,1.0606,1.0615,1.0613,1.0607,1.0607,1.0608,1.0611,1.0614,1.0614,1.0628,1.0614,1.0615,1.0615,1.0615,1.0658,1.0659,0,0,0,0,0,0,1.0599,1.06,1.0615,1.0616,1.0602,1.0607,1.0607,1.0611,1.0613,1.0612,1.0608,1.0607,1.0613,1.0614,1.0615,1.0635,1.0615,1.0616,1.0616,1.0658,1.0658,1.0659,0,0,0,0,0,0,1.0599,1.0601,1.0615,1.0608,1.0609,1.0608,1.0612,1.0612,1.0614,1.0613,1.0612,1.0611,1.0612,1.0614,1.0625,1.0635,1.0616,1.0616,1.0657,1.0658,1.0659,1.0675,0,0,0,0,0,0,1.0598,1.06,1.0606,1.0608,1.061,1.0626,1.0613,1.0612,1.0616,1.0614,1.0616,1.0615,1.0612,1.0624,1.0626,1.0635,1.0617,1.0656,1.0657,1.0658,1.0673,1.0676,1.0679,0,0,0,0,0,1.0597,1.061,1.0607,1.0608,1.0617,1.0626,1.0627,1.0624,1.0617,1.0623,1.0622,1.0615,1.0634,1.0626,1.0628,1.0637,1.0655,1.0657,1.0658,1.0672,1.0676,1.0679,0,0,0,0,0,0,1.0608,1.061,1.0606,1.0619,1.0623,1.0624,1.0631,1.0627,1.0632,1.063,1.0625,1.0626,1.0639,1.0639,1.063,1.0654,1.0643,1.0645,1.0653,1.0656,1.0659,1.0658,1.0618,0,0,0,0,0,1.0612,1.0619,1.0621,1.0632,1.0634,1.0633,1.0637,1.0634,1.0637,1.0638,1.0638,1.0641,1.0648,1.0652,1.0658,1.0674,1.0675,1.0682,1.0684,1.0687,1.0688,1.0698,1.0701,1.0664,1.0664,1.0664,0,0,1.062,1.0622,1.0627,1.0634,1.0637,1.0645,1.0634,1.0642,1.0649,1.0639,1.0651,1.0651,1.0655,1.0669,1.0675,1.067,1.0699,1.0689,1.069,1.0691,1.07,1.0703,1.0707,1.0665,1.0665,1.0665,0,0,1.0639,1.0641,1.0651,1.0655,1.0659,1.0658,1.0661,1.0664,1.0664,1.0676,1.067,1.0677,1.0688,1.0692,1.0695,1.0718,1.0712,1.072,1.0734,1.0743,1.0746,1.0749,1.0758,1.0761,1.0722,1.0722,1.0722,0,1.0648,1.066,1.0657,1.0667,1.0671,1.0665,1.0676,1.0679,1.0685,1.0688,1.0682,1.0698,1.0699,1.0715,1.0721,1.0724,1.0727,1.0719,1.0746,1.0749,1.0751,1.076,1.0763,1.0723,1.0723,1.0723,1.0723,0,1.0671,1.068,1.0688,1.0695,1.0701,1.0711,1.0711,1.0716,1.0714,1.0714,1.0728,1.073,1.0737,1.0741,1.0738,1.0757,1.0753,1.0747,1.0736,1.0756,1.0764,1.0767,1.0724,1.0724,1.0724,1.0723,0,0,1.0694,1.0702,1.0705,1.0709,1.0715,1.0722,1.0733,1.0741,1.0746,1.0751,1.0761,1.0772,1.0767,1.0771,1.0768,1.0777,1.0797,1.077,1.077,1.0775,1.0819,1.0824,1.0827,1.0794,1.0794,1.0795,1.0819,0,1.0713,1.0732,1.0732,1.075,1.0758,1.0754,1.0764,1.0769,1.077,1.0778,1.078,1.0788,1.078,1.0783,1.0791,1.0792,1.0806,1.0791,1.0802,1.0803,1.0801,1.0831,1.0836,1.0858,1.0822,1.0822,1.0823,0,1.0737,1.0745,1.0764,1.077,1.0774,1.0783,1.0791,1.0799,1.0805,1.0806,1.0811,1.0809,1.0821,1.081,1.0827,1.0817,1.0822,1.0824,1.0825,1.0825,1.0813,1.0832,1.0865,1.0869,1.0828,1.0827,1.0827,0,1.0752,1.0767,1.0781,1.0785,1.0793,1.0799,1.0803,1.0809,1.0814,1.0822,1.0826,1.0835,1.0839,1.0846,1.0847,1.0839,1.0864,1.0853,1.0865,1.0865,1.0869,1.0869,1.0903,1.0873,1.0873,1.0873,1.0873,0,1.0773,1.0785,1.0789,1.0797,1.0811,1.0811,1.0825,1.0828,1.0834,1.0843,1.084,1.0849,1.0849,1.0858,1.0858,1.0873,1.0875,1.0876,1.0876,1.0876,1.0876,1.0878,1.0877,1.0874,1.0874,1.0874,1.0874,0,1.0792,1.0795,1.081,1.0817,1.0819,1.0829,1.0835,1.0844,1.0846,1.0859,1.0861,1.0865,1.0876,1.0877,1.089,1.089,1.0908,1.0906,1.0906,1.0906,1.0917,1.0916,1.0954,1.0959,1.0926,1.0927,1.0927,0,1.0804,1.0814,1.0823,1.083,1.0834,1.0844,1.0851,1.0852,1.0859,1.0869,1.0876,1.0888,1.0896,1.0915,1.0918,1.0928,1.0927,1.094,1.0928,1.0929,1.0927,1.0927,1.0928,1.0941,1.0942,1.0942,1.0942,0,1.0827,1.0829,1.0838,1.0849,1.0857,1.0866,1.0874,1.0879,1.0882,1.089,1.0902,1.0909,1.0923,1.0935,1.0945,1.0949,1.0947,1.0946,1.0949,1.0949,1.0949,1.095,1.0912,1.0945,1.0945,1.0944,1.0944,1.0944,1.0843,1.0852,1.0861,1.0872,1.0879,1.0887,1.0896,1.09,1.0911,1.0923,1.0923,1.0937,1.0945,1.0959,1.0964,1.0975,1.0971,1.0976,1.0977,1.0978,1.0979,1.0948,1.0977,1.0977,1.0977,1.0977,1.0977,0,1.0866,1.0872,1.0883,1.0895,1.0904,1.0902,1.0912,1.092,1.0932,1.094,1.095,1.0965,1.0977,1.0982,1.0994,1.1002,1.1001,1.1005,1.1004,1.1005,1.0982,1.0978,1.1006,1.1006,1.1006,1.1006,1.1006,1.1006,1.0878,1.0894,1.0897,1.0917,1.0923,1.0936,1.0942,1.095,1.0957,1.0974,1.0984,1.0989,1.0996,1.1009,1.1021,1.1022,1.1027,1.1031,1.1032,1.101,1.1007,1.1004,1.1,1.1032,1.1032,1.1055,1.1055,1.1055]},{"header":{"parameterUnit":"m.s-1","parameterCategory":1,"la1":30.2991,"la2":30.254,"lo1":-89.0895,"lo2":-89.0444,"dy":0.0017,"dx":0.0017,"nx":28,"ny":28,"refTime":"2024-03-23T03:00:00:Z","depth":0,"parameterNumber":3,"parameterNumberName":"V-component_of_WINDS"},"data":[0,0,0,0,0,0,0,0,0,0,0,0,0,0,0,0,0,0,0,0,0,0,0,0,0,0,0,0,0,0,0,0,0,0,0,0,0,0,0,0,0,0,0,0,0,0,0,0,0,0,0,0,0,0,0,0,0,0,-5.1075,-5.1076,0,-5.1129,-5.113,-5.1131,-5.1102,-5.1101,-5.1099,-5.1098,-5.115,-5.1152,-5.1155,0,0,0,0,0,0,0,0,0,0,0,0,0,-5.0945,-5.0948,-5.1075,-5.1076,-5.1077,-5.1129,-5.113,-5.1131,-5.1103,-5.1101,-5.1099,-5.1097,-5.1149,-5.1152,-5.1155,0,0,0,0,0,0,0,0,0,0,0,0,0,-5.1001,-5.0949,-5.1075,-5.1069,-5.1069,-5.1129,-5.113,-5.1131,-5.1103,-5.1101,-5.1099,-5.1097,-5.1148,-5.1152,-5.1156,-5.1224,0,0,-5.1168,-5.117,0,0,0,0,0,0,0,0,-5.0998,-5.1005,-5.1069,-5.107,-5.107,-5.1107,-5.1103,-5.1162,-5.1104,-5.109,-5.1098,-5.1096,-5.1137,-5.1142,-5.1157,-5.1226,-5.1228,-5.1169,-5.1171,-5.1173,-5.1174,0,0,0,0,0,0,0,-5.0994,-5.1003,-5.1096,-5.107,-5.107,-5.1063,-5.1068,-5.1114,-5.1125,-5.1091,-5.1089,-5.1096,-5.1137,-5.1153,-5.1158,-5.1229,-5.1168,-5.1172,-5.1175,-5.1176,-5.1359,-5.1361,0,0,0,0,0,0,-5.0991,-5.1,-5.1095,-5.1098,-5.1028,-5.1067,-5.1073,-5.1097,-5.1124,-5.1126,-5.1098,-5.1095,-5.1147,-5.1153,-5.1159,-5.1242,-5.1173,-5.1177,-5.1179,-5.1356,-5.1359,-5.1362,0,0,0,0,0,0,-5.0988,-5.0999,-5.1093,-5.1049,-5.106,-5.1071,-5.1099,-5.1099,-5.1115,-5.1129,-5.1131,-5.1112,-5.1145,-5.1154,-5.1209,-5.1243,-5.1178,-5.1182,-5.1353,-5.1357,-5.136,-5.1406,0,0,0,0,0,0,-5.0984,-5.0999,-5.1025,-5.105,-5.1062,-5.1142,-5.1101,-5.1102,-5.1123,-5.1119,-5.1144,-5.1145,-5.1144,-5.1203,-5.1213,-5.1247,-5.1185,-5.135,-5.1355,-5.1359,-5.1402,-5.1411,-5.1419,0,0,0,0,0,-5.098,-5.1035,-5.1027,-5.1038,-5.1096,-5.1144,-5.1151,-5.115,-5.1126,-5.1152,-5.1162,-5.1145,-5.1238,-5.1209,-5.1219,-5.1256,-5.1348,-5.1354,-5.1359,-5.1398,-5.1409,-5.1419,0,0,0,0,0,0,-5.1012,-5.1038,-5.1029,-5.1093,-5.1117,-5.1139,-5.1172,-5.1162,-5.1191,-5.1186,-5.1182,-5.1188,-5.1246,-5.1256,-5.1223,-5.1324,-5.1289,-5.1297,-5.1315,-5.1326,-5.1334,-5.133,-5.1189,0,0,0,0,0,-5.1027,-5.1065,-5.1085,-5.1139,-5.1152,-5.116,-5.1181,-5.1178,-5.1202,-5.1211,-5.1224,-5.1247,-5.1282,-5.1304,-5.1336,-5.1403,-5.1408,-5.1434,-5.1442,-5.1449,-5.1456,-5.1493,-5.1505,-5.138,-5.138,-5.1379,0,0,-5.1057,-5.1076,-5.11,-5.1147,-5.1164,-5.1203,-5.1169,-5.1211,-5.1239,-5.1217,-5.127,-5.1281,-5.1306,-5.1368,-5.1395,-5.1378,-5.1492,-5.1456,-5.1462,-5.1465,-5.15,-5.1512,-5.1522,-5.1383,-5.1383,-5.1382,0,0,-5.1133,-5.1151,-5.1199,-5.1218,-5.1247,-5.1252,-5.1264,-5.1288,-5.1295,-5.1349,-5.1334,-5.1367,-5.1426,-5.1445,-5.1463,-5.1548,-5.1533,-5.1558,-5.1603,-5.1639,-5.1649,-5.1658,-5.1688,-5.1699,-5.1565,-5.1565,-5.1565,0,-5.1166,-5.1225,-5.1225,-5.1269,-5.129,-5.1274,-5.1323,-5.1341,-5.1378,-5.1393,-5.1373,-5.1449,-5.1464,-5.153,-5.1552,-5.1566,-5.1579,-5.1555,-5.1648,-5.1656,-5.1664,-5.1694,-5.1705,-5.1568,-5.1568,-5.1567,-5.1567,0,-5.1266,-5.1307,-5.1343,-5.1381,-5.1406,-5.1452,-5.1458,-5.1484,-5.1479,-5.1487,-5.1542,-5.1561,-5.1597,-5.1613,-5.1608,-5.1679,-5.1667,-5.1648,-5.1613,-5.1679,-5.1707,-5.1718,-5.1572,-5.1571,-5.157,-5.1569,0,0,-5.1361,-5.1401,-5.1414,-5.1431,-5.1462,-5.1494,-5.1539,-5.1577,-5.1599,-5.1625,-5.1663,-5.1715,-5.1698,-5.1718,-5.1715,-5.1747,-5.1814,-5.1724,-5.1724,-5.174,-5.1894,-5.1908,-5.1921,-5.1805,-5.1807,-5.1809,-5.1892,0,-5.1439,-5.152,-5.1522,-5.1596,-5.1635,-5.1621,-5.1661,-5.1684,-5.1693,-5.1726,-5.1735,-5.1772,-5.1746,-5.1758,-5.1789,-5.1799,-5.1845,-5.1793,-5.184,-5.1842,-5.1834,-5.1935,-5.195,-5.2027,-5.1902,-5.1904,-5.1906,0,-5.154,-5.1572,-5.1651,-5.1678,-5.1694,-5.173,-5.1765,-5.1797,-5.1823,-5.1827,-5.1851,-5.1844,-5.189,-5.1855,-5.1918,-5.1883,-5.1903,-5.1911,-5.1914,-5.1918,-5.1877,-5.1942,-5.2052,-5.2063,-5.1922,-5.1921,-5.192,0,-5.1602,-5.1665,-5.1721,-5.1736,-5.1769,-5.1795,-5.181,-5.1834,-5.1857,-5.1887,-5.1902,-5.1937,-5.1956,-5.1983,-5.1985,-5.1959,-5.205,-5.2014,-5.2054,-5.2054,-5.2073,-5.2072,-5.2188,-5.2086,-5.2086,-5.2086,-5.2085,0,-5.1689,-5.1737,-5.1749,-5.1783,-5.1838,-5.1839,-5.1893,-5.1905,-5.1927,-5.1963,-5.1953,-5.1987,-5.1989,-5.2023,-5.2025,-5.2078,-5.2086,-5.2091,-5.2091,-5.2092,-5.2091,-5.2104,-5.2098,-5.2089,-5.2088,-5.2087,-5.2087,0,-5.1767,-5.1777,-5.1837,-5.1864,-5.1872,-5.1911,-5.1934,-5.1966,-5.1975,-5.2021,-5.2031,-5.2044,-5.2084,-5.209,-5.2137,-5.2138,-5.2202,-5.2196,-5.2193,-5.2192,-5.2232,-5.2229,-5.236,-5.2378,-5.2265,-5.2266,-5.2267,0,-5.1821,-5.1859,-5.1891,-5.1915,-5.1932,-5.1971,-5.1995,-5.1999,-5.2024,-5.2058,-5.2086,-5.2126,-5.2158,-5.2222,-5.2235,-5.2271,-5.2266,-5.231,-5.2271,-5.2272,-5.2267,-5.2265,-5.2269,-5.2317,-5.2318,-5.2319,-5.232,0,-5.1917,-5.192,-5.1956,-5.1995,-5.2024,-5.2054,-5.2082,-5.2102,-5.2109,-5.2138,-5.218,-5.2205,-5.2254,-5.2294,-5.233,-5.2344,-5.2333,-5.2333,-5.2344,-5.2345,-5.2342,-5.2344,-5.2214,-5.2329,-5.2328,-5.2328,-5.2327,-5.2327,-5.1984,-5.2018,-5.2047,-5.2087,-5.2109,-5.2136,-5.2169,-5.2182,-5.2218,-5.2259,-5.2259,-5.2305,-5.2332,-5.2379,-5.2396,-5.2432,-5.2417,-5.2434,-5.2438,-5.2441,-5.2446,-5.2337,-5.2438,-5.2438,-5.2438,-5.2438,-5.2437,0,-5.208,-5.2098,-5.2136,-5.2177,-5.2209,-5.2198,-5.2229,-5.2257,-5.2298,-5.2324,-5.2357,-5.2406,-5.2445,-5.2461,-5.2499,-5.2525,-5.2521,-5.2535,-5.2533,-5.2536,-5.2456,-5.2443,-5.2537,-5.2537,-5.2537,-5.2537,-5.2537,-5.2537,-5.2133,-5.2189,-5.2197,-5.2264,-5.2282,-5.2328,-5.2347,-5.2372,-5.2393,-5.2449,-5.2482,-5.2494,-5.2516,-5.2556,-5.2591,-5.2595,-5.2609,-5.2625,-5.2627,-5.2552,-5.2542,-5.2532,-5.252,-5.2629,-5.2629,-5.2704,-5.2705,-5.2705]}]]